Regional Weather Roundup
Issued by NWS San Angelo, TX

Home | Current Version | Previous Version | Text Only | Print | Product List | Glossary On
Versions: 1 2 3 4 5 6 7 8 9 10 11 12 13 14 15 16 17 18 19 20 21 22 23 24 25 26 27 28 29 30 31 32 33 34 35 36 37 38 39 40 41 42 43 44 45 46 47 48 49 50
000
ASUS44 KSJT 242358
RWRSJT
WEST CENTRAL TEXAS REGIONAL WEATHER ROUNDUP
NATIONAL WEATHER SERVICE SAN ANGELO TX
600 PM CST TUE JAN 24 2017

NOTE: "FAIR" INDICATES FEW OR NO CLOUDS BELOW 12,000 FEET WITH NO
SIGNIFICANT WEATHER AND/OR OBSTRUCTIONS TO VISIBILITY.

TXZ049-054-064>066-071>073-076>078-098-099-113-114-127-128-139-140-
154-155-168>170-250100
...LOCATIONS ACROSS WEST CENTRAL TEXAS...

CITY           SKY/WX    TMP DP  RH WIND       PRES   REMARKS
SAN ANGELO     CLEAR     71  34  25 NW8       29.63R
ABILENE        CLEAR     67  33  28 NW8       29.64R
DYESS AFB      NOT AVBL
JUNCTION       CLEAR     81  35  19 SW8       29.62R
SWEETWATER     NOT AVBL
BROWNWOOD      NOT AVBL
COLEMAN        NOT AVBL
SONORA         NOT AVBL
OZONA          NOT AVBL
BRADY          NOT AVBL
$$

TEXAS PANHANDLE/OKLAHOMA PANHANDLE

CITY           SKY/WX    TMP DP  RH WIND       PRES   REMARKS
AMARILLO       CLEAR     50   9  19 W25G35    29.66R
BORGER         CLEAR     54   7  15 W21G37    29.61R
CANADIAN       NOT AVBL
DALHART        CLEAR     49   8  19 W20G33    29.62R
DUMAS          NOT AVBL
GUYMON         NOT AVBL
HEREFORD       NOT AVBL
PAMPA          NOT AVBL
PERRYTON       NOT AVBL
$$

SOUTHERN PANHANDLE/SOUTH PLAINS/ROLLING PLAINS

CITY           SKY/WX    TMP DP  RH WIND       PRES   REMARKS
LUBBOCK        CLEAR     57  10  15 W18       29.67R
SNYDER         NOT AVBL
CHILDRESS      CLEAR     62  29  28 NW18G25   29.63R
SEMINOLE       NOT AVBL
$$

PERMIAN BASIN

CITY           SKY/WX    TMP DP  RH WIND       PRES   REMARKS
MIDLAND        CLEAR     64  29  26 NW9       29.71R
ODESSA         CLEAR     62  28  27 NW13G24   29.72R
WINK           CLEAR     62  28  27 W24G31    29.71R
$$

FAR WEST/SOUTHWEST MOUNTAINS/TRANS PECOS

CITY           SKY/WX    TMP DP  RH WIND       PRES   REMARKS
ALPINE         NOT AVBL
DRYDEN         NOT AVBL
EL PASO        PTCLDY    52  21  29 W15G26    29.81S
FORT STOCKTON  CLEAR     65  31  28 N15       29.72R
GUADALUPE PASS CLEAR     46  23  40 SW44G54   29.74F WCI  35
MARFA          NOT AVBL
PECOS          NOT AVBL
$$

DALLAS/FORT WORTH METROPLEX

CITY           SKY/WX    TMP DP  RH WIND       PRES   REMARKS
DFW AIRPORT    CLOUDY    75  52  44 S10       29.57R
FTW MEACHAM    CLOUDY    74  52  46 S9        29.58R
DAL-EXECUTIVE  CLOUDY    74  54  49 S9G21     29.58R
GRAND PRAIRIE  NOT AVBL
ADDISON        NOT AVBL
MESQUITE       CLEAR     73  54  49 SE8       29.59R
LANCASTER      NOT AVBL
$$

NORTH CENTRAL TEXAS

CITY           SKY/WX    TMP DP  RH WIND       PRES   REMARKS
SHRMAN/DENISON NOT AVBL
GAINESVILLE    NOT AVBL
BRIDGEPORT     NOT AVBL
DENTON         PTCLDY    68  53  58 SE7       29.58R
WAXAHACHIE     NOT AVBL
GRANBURY       NOT AVBL
$$

WESTERN NORTH TEXAS

CITY           SKY/WX    TMP DP  RH WIND       PRES   REMARKS
WICHITA FALLS  CLOUDY    71  31  22 W14       29.58R
VERNON         NOT AVBL
BRECKENRIDGE   NOT AVBL
COMANCHE       NOT AVBL
$$

CENTRAL AND SOUTH CENTRAL TEXAS

CITY           SKY/WX    TMP DP  RH WIND       PRES   REMARKS
AUSTIN/BERGSTM MOCLDY    78  60  53 SE13      29.63R
WACO           PTCLDY    73  58  59 S12       29.59S
HILLSBORO      NOT AVBL
TEMPLE         PTCLDY    75  57  53 S16       29.61R
KILLEEN-GRAY   NOT AVBL
FORT HOOD      NOT AVBL
GEORGETOWN     CLEAR     79  52  38 S13G18    29.61R
LAGO VISTA     NOT AVBL
SAN MARCOS     CLEAR     77  55  47 S10       29.65R
NEW BRAUNFELS  PTCLDY    75  54  47 S7        29.63R
RANDOLPH AFB   NOT AVBL
SAN ANTONIO    MOCLDY    75  51  43 SE6       29.64S
STINSON        CLEAR     80  52  37 E6        29.60S
PLEASANTON     NOT AVBL
LA GRANGE      NOT AVBL
GIDDINGS       NOT AVBL
$$

EAST TEXAS

CITY           SKY/WX    TMP DP  RH WIND       PRES   REMARKS
PARIS          NOT AVBL
CLARKSVILLE    NOT AVBL
TYLER          PTCLDY    72  55  55 S8        29.64R
LONGVIEW       PTCLDY    70  55  59 S10       29.65R
PALESTINE      NOT AVBL
NACOGDOCHES    NOT AVBL
$$

TEXAS HILL COUNTRY AND EDWARDS PLATEAU

CITY           SKY/WX    TMP DP  RH WIND       PRES   REMARKS
LLANO          NOT AVBL
HORSESHOE BAY  NOT AVBL
KERRVILLE      NOT AVBL
FREDERICKSBRG  NOT AVBL
ROCKSPRINGS    NOT AVBL
HONDO          CLOUDY    79  48  33 E3        29.63R
UVALDE         NOT AVBL
DEL RIO        PTCLDY    81  43  26 E9        29.59
$$

SOUTHEAST TEXAS

CITY           SKY/WX    TMP DP  RH WIND       PRES   REMARKS
COLLEGE STN    PTCLDY    73  62  68 S15G26    29.66R
CALDWELL       NOT AVBL
CROCKETT       NOT AVBL
BRENHAM        NOT AVBL
HUNTSVILLE     CLEAR     74  57  55 S12       29.67S
CONROE         PTCLDY    72  61  68 S14       29.70S
HOUSTON BUSH   MOCLDY    73  62  68 S14       29.72F
HOUSTON HOBBY  MOCLDY    71  64  78 S12       29.74S
PERLAND        CLOUDY    73  65  75 S10       29.76S
WHARTON        NOT AVBL
$$

THE UPPER TEXAS COAST

CITY           SKY/WX    TMP DP  RH WIND       PRES   REMARKS
ORANGE         NOT AVBL
PORT ARTHUR    PTCLDY    67  60  78 SE9       29.78S
GALVESTON      MOCLDY    69  66  90 SE12      29.77S
ANGLETON       CLOUDY    72  65  78 S12       29.75S
BAY CITY       NOT AVBL
$$

TEXAS COASTAL BEND, RIO GRANDE PLAINS DEEP SOUTH TEXAS

CITY           SKY/WX    TMP DP  RH WIND       PRES   REMARKS
VICTORIA       CLOUDY    72  65  78 S21G30    29.69R
BEEVILLE       NOT AVBL
ROCKPORT       CLEAR     71  65  81 SE17G24   29.67F
PORT ARANSAS   NOT AVBL
PORT LAVACA    NOT AVBL
CORPUS CHRISTI MOCLDY    74  66  76 SE25G35   29.65R
KINGSVILLE NAS NOT AVBL
COTULLA        CLEAR     85  41  21 SE6       29.59S
LAREDO         NOT AVBL
BROWNSVILLE    NOT AVBL
PORT ISABEL    NOT AVBL
HEBBRONVILLE   NOT AVBL
MCALLEN        CLEAR     80  65  59 SE18      29.63R
WESLACO        NOT AVBL
FALFURRIAS     NOT AVBL
EDINBURG       NOT AVBL
$$




USA.gov is the U.S. government's official web portal to all federal, state and local government web resources and services.